{"data":{"norad_id":53918,"epoch":"2026-09-20T05:16:39.792864Z","epoch_age_seconds":111203,"freshness":"FRESH","line1":"1 53918U 22119AJ  26263.21990501  .00000601  00000+0  55868-4 0  9999","line2":"2 53918  53.1611 160.0864 0001538  88.7367 271.3800 15.08832817221195","mean_motion":15.08832817,"eccentricity":0.0001538,"inclination_deg":53.1611,"raan_deg":160.0864,"arg_perigee_deg":88.7367,"mean_anomaly_deg":271.38,"bstar":5.5868e-5,"rev_number":22119,"period_min":95.438009020982,"perigee_km":538.701371228,"apogee_km":540.8293179892,"semimajor_km":6917.9023446086,"source":"CELESTRAK","updated_at":"2026-09-21T09:00:33.034695Z"}}